Time,TemperatureF,DewpointF,PressureIn,WindDirection,WindDirectionDegrees,WindSpeedMPH,WindSpeedGustMPH,Humidity,HourlyPrecipIn,Conditions,Clouds,dailyrainin,SoftwareType,DateUTC
2013-01-23 00:02:00,-6.3,-18.7,30.15,SW,236,0.0,0.0,54,0.00,CLR,,0.00,WeatherDisplay:10.37,2013-01-23 06:02:00,
2013-01-23 00:07:00,-6.0,-18.3,30.15,SW,236,0.0,0.0,54,0.00,CLR,,0.00,WeatherDisplay:10.37,2013-01-23 06:07:00,
2013-01-23 00:12:00,-5.4,-17.8,30.15,SW,236,0.0,0.0,54,0.00,CLR,,0.00,WeatherDisplay:10.37,2013-01-23 06:12:00,
2013-01-23 00:17:00,-5.1,-17.5,30.15,SW,236,0.0,0.0,54,0.00,CLR,,0.00,WeatherDisplay:10.37,2013-01-23 06:17:00,
2013-01-23 00:23:00,-4.9,-17.3,30.15,SW,236,0.0,0.0,54,0.00,CLR,,0.00,WeatherDisplay:10.37,2013-01-23 06:23:00,
2013-01-23 00:28:00,-4.7,-17.2,30.15,SW,236,0.0,0.0,54,0.00,CLR,,0.00,WeatherDisplay:10.37,2013-01-23 06:28:00,
2013-01-23 00:33:00,-4.7,-17.2,30.15,SW,236,0.0,0.0,54,0.00,CLR,,0.00,WeatherDisplay:10.37,2013-01-23 06:33:00,
2013-01-23 00:38:00,-4.4,-16.8,30.15,SW,236,0.0,0.0,54,0.00,CLR,,0.00,WeatherDisplay:10.37,2013-01-23 06:38:00,
2013-01-23 00:43:00,-4.2,-16.7,30.15,SW,236,0.0,0.0,54,0.00,CLR,,0.00,WeatherDisplay:10.37,2013-01-23 06:43:00,
2013-01-23 00:48:00,-3.8,-16.3,30.15,SW,236,0.0,0.0,54,0.00,CLR,,0.00,WeatherDisplay:10.37,2013-01-23 06:48:00,
2013-01-23 00:53:00,-3.5,-16.0,30.15,SW,236,0.0,0.0,54,0.00,CLR,,0.00,WeatherDisplay:10.37,2013-01-23 06:53:00,
2013-01-23 00:59:00,-3.1,-15.6,30.15,SW,236,0.0,0.0,54,0.00,CLR,,0.00,WeatherDisplay:10.37,2013-01-23 06:59:00,
2013-01-23 01:04:00,-2.7,-15.3,30.15,SW,236,0.0,0.0,54,0.00,CLR,,0.00,WeatherDisplay:10.37,2013-01-23 07:04:00,
2013-01-23 01:09:00,-2.4,-15.0,30.15,SW,236,0.0,0.0,54,0.00,CLR,,0.00,WeatherDisplay:10.37,2013-01-23 07:09:00,
2013-01-23 01:14:00,-2.2,-14.8,30.15,SW,236,0.0,0.0,54,0.00,CLR,,0.00,WeatherDisplay:10.37,2013-01-23 07:14:00,
2013-01-23 01:19:00,-1.8,-14.5,30.15,SW,236,0.0,0.0,54,0.00,CLR,,0.00,WeatherDisplay:10.37,2013-01-23 07:19:00,
2013-01-23 01:24:00,-1.8,-14.5,30.15,SW,236,0.0,0.0,54,0.00,CLR,,0.00,WeatherDisplay:10.37,2013-01-23 07:24:00,
2013-01-23 01:30:00,-1.5,-14.1,30.15,SW,236,0.0,0.0,54,0.00,CLR,,0.00,WeatherDisplay:10.37,2013-01-23 07:30:00,
2013-01-23 01:35:00,-1.3,-14.0,30.15,SW,236,0.0,0.0,54,0.00,CLR,,0.00,WeatherDisplay:10.37,2013-01-23 07:35:00,
2013-01-23 01:40:00,-1.1,-13.8,30.15,SW,236,0.0,0.0,54,0.00,CLR,,0.00,WeatherDisplay:10.37,2013-01-23 07:40:00,
2013-01-23 01:45:00,-0.9,-13.6,30.15,SW,236,0.0,0.0,54,0.00,CLR,,0.00,WeatherDisplay:10.37,2013-01-23 07:45:00,
2013-01-23 01:50:00,-0.8,-13.4,30.12,SW,236,0.0,0.0,54,0.00,CLR,,0.00,WeatherDisplay:10.37,2013-01-23 07:50:00,
2013-01-23 01:55:00,-0.8,-13.4,30.12,SW,236,0.0,0.0,54,0.00,CLR,,0.00,WeatherDisplay:10.37,2013-01-23 07:55:00,
2013-01-23 02:00:00,-0.6,-13.3,30.12,SW,236,0.0,0.0,54,0.00,CLR,,0.00,WeatherDisplay:10.37,2013-01-23 08:00:00,
2013-01-23 02:06:00,-0.6,-13.3,30.12,SW,236,0.0,0.0,54,0.00,CLR,,0.00,WeatherDisplay:10.37,2013-01-23 08:06:00,
2013-01-23 02:11:00,-0.6,-13.3,30.12,SW,236,0.0,0.0,54,0.00,CLR,,0.00,WeatherDisplay:10.37,2013-01-23 08:11:00,
2013-01-23 02:16:00,-0.6,-13.3,30.12,SW,236,0.0,0.0,54,0.00,CLR,,0.00,WeatherDisplay:10.37,2013-01-23 08:16:00,
2013-01-23 02:22:00,-0.4,-13.1,30.12,SW,236,0.0,0.0,54,0.00,CLR,,0.00,WeatherDisplay:10.37,2013-01-23 08:22:00,
2013-01-23 02:27:00,-0.2,-12.9,30.12,SW,236,0.0,0.0,54,0.00,CLR,,0.00,WeatherDisplay:10.37,2013-01-23 08:27:00,
2013-01-23 02:32:00,0.0,-12.8,30.12,SW,236,0.0,0.0,54,0.00,CLR,,0.00,WeatherDisplay:10.37,2013-01-23 08:32:00,
2013-01-23 02:37:00,0.0,-12.8,30.12,SW,236,0.0,0.0,54,0.00,CLR,,0.00,WeatherDisplay:10.37,2013-01-23 08:37:00,
2013-01-23 02:42:00,0.1,-12.6,30.12,SW,236,0.0,0.0,54,0.00,CLR,,0.00,WeatherDisplay:10.37,2013-01-23 08:42:00,
2013-01-23 02:47:00,0.3,-12.4,30.12,SW,236,0.0,0.0,54,0.00,CLR,,0.00,WeatherDisplay:10.37,2013-01-23 08:47:00,
2013-01-23 02:52:00,0.3,-12.4,30.12,SW,236,0.0,0.0,54,0.00,CLR,,0.00,WeatherDisplay:10.37,2013-01-23 08:52:00,
2013-01-23 02:57:00,0.3,-12.4,30.12,SW,236,0.0,0.0,54,0.00,CLR,,0.00,WeatherDisplay:10.37,2013-01-23 08:57:00,
2013-01-23 03:02:00,0.5,-12.3,30.12,SW,236,0.0,0.0,54,0.00,CLR,,0.00,WeatherDisplay:10.37,2013-01-23 09:02:00,
2013-01-23 03:07:00,0.7,-12.1,30.12,SW,236,0.0,0.0,54,0.00,CLR,,0.00,WeatherDisplay:10.37,2013-01-23 09:07:00,
2013-01-23 03:13:00,0.7,-12.1,30.12,SW,236,0.0,0.0,54,0.00,CLR,,0.00,WeatherDisplay:10.37,2013-01-23 09:13:00,
2013-01-23 03:18:00,0.9,-11.9,30.12,SW,236,0.0,0.0,54,0.00,CLR,,0.00,WeatherDisplay:10.37,2013-01-23 09:18:00,
2013-01-23 03:23:00,1.2,-11.6,30.12,SW,236,0.0,0.0,54,0.00,CLR,,0.00,WeatherDisplay:10.37,2013-01-23 09:23:00,
2013-01-23 03:28:00,1.2,-11.6,30.12,SW,236,0.0,0.0,54,0.00,CLR,,0.00,WeatherDisplay:10.37,2013-01-23 09:28:00,
2013-01-23 03:33:00,1.4,-11.4,30.12,SW,236,0.0,0.0,54,0.00,CLR,,0.00,WeatherDisplay:10.37,2013-01-23 09:33:00,
2013-01-23 03:38:00,1.6,-11.3,30.12,SW,236,0.0,0.0,54,0.00,CLR,,0.00,WeatherDisplay:10.37,2013-01-23 09:38:00,
2013-01-23 03:44:00,1.8,-11.1,30.12,SW,236,0.0,0.0,54,0.00,CLR,,0.00,WeatherDisplay:10.37,2013-01-23 09:44:00,
2013-01-23 03:49:00,1.9,-10.9,30.12,SW,236,0.0,0.0,54,0.00,CLR,,0.00,WeatherDisplay:10.37,2013-01-23 09:49:00,
2013-01-23 03:54:00,2.1,-10.7,30.12,SW,236,0.0,0.0,54,0.00,CLR,,0.00,WeatherDisplay:10.37,2013-01-23 09:54:00,
2013-01-23 03:59:00,2.3,-10.6,30.12,SW,236,0.0,0.0,54,0.00,CLR,,0.00,WeatherDisplay:10.37,2013-01-23 09:59:00,
2013-01-23 04:04:00,2.5,-10.4,30.12,SW,229,0.0,0.0,54,0.00,CLR,,0.00,WeatherDisplay:10.37,2013-01-23 10:04:00,
2013-01-23 04:09:00,2.7,-10.2,30.12,SW,225,0.0,0.0,54,0.00,CLR,,0.00,WeatherDisplay:10.37,2013-01-23 10:09:00,
2013-01-23 04:14:00,2.8,-10.1,30.12,SW,225,0.0,0.0,54,0.00,CLR,,0.00,WeatherDisplay:10.37,2013-01-23 10:14:00,
2013-01-23 04:19:00,2.8,-10.1,30.09,SW,221,0.0,0.0,54,0.00,CLR,,0.00,WeatherDisplay:10.37,2013-01-23 10:19:00,
2013-01-23 04:24:00,3.0,-9.9,30.09,SW,221,0.0,0.0,54,0.00,CLR,,0.00,WeatherDisplay:10.37,2013-01-23 10:24:00,
2013-01-23 04:30:00,3.2,-9.7,30.09,SW,221,0.0,0.0,54,0.00,CLR,,0.00,WeatherDisplay:10.37,2013-01-23 10:30:00,
2013-01-23 04:35:00,3.2,-9.7,30.09,SW,221,0.0,0.0,54,0.00,CLR,,0.00,WeatherDisplay:10.37,2013-01-23 10:35:00,
2013-01-23 04:40:00,3.2,-9.7,30.09,SW,222,3.5,3.5,54,0.00,CLR,,0.00,WeatherDisplay:10.37,2013-01-23 10:40:00,
2013-01-23 04:45:00,3.4,-9.6,30.09,SW,227,3.5,3.5,54,0.00,CLR,,0.00,WeatherDisplay:10.37,2013-01-23 10:45:00,
2013-01-23 04:50:00,3.4,-9.6,30.09,WSW,256,3.5,0.0,54,0.00,CLR,,0.00,WeatherDisplay:10.37,2013-01-23 10:50:00,
2013-01-23 04:56:00,3.6,-9.4,30.09,WSW,254,0.0,0.0,54,0.00,CLR,,0.00,WeatherDisplay:10.37,2013-01-23 10:56:00,
2013-01-23 05:01:00,3.6,-9.4,30.09,WSW,254,0.0,0.0,54,0.00,CLR,,0.00,WeatherDisplay:10.37,2013-01-23 11:01:00,
2013-01-23 05:06:00,3.7,-9.2,30.09,WSW,254,0.0,0.0,54,0.00,CLR,,0.00,WeatherDisplay:10.37,2013-01-23 11:06:00,
2013-01-23 05:11:00,3.7,-9.2,30.09,WSW,254,0.0,0.0,54,0.00,CLR,,0.00,WeatherDisplay:10.37,2013-01-23 11:11:00,
2013-01-23 05:17:00,3.7,-9.2,30.09,WSW,254,0.0,0.0,54,0.00,CLR,,0.00,WeatherDisplay:10.37,2013-01-23 11:17:00,
2013-01-23 05:22:00,3.7,-9.2,30.09,WSW,254,0.0,0.0,54,0.00,CLR,,0.00,WeatherDisplay:10.37,2013-01-23 11:22:00,
2013-01-23 05:27:00,3.7,-9.2,30.09,WSW,254,0.0,0.0,54,0.00,CLR,,0.00,WeatherDisplay:10.37,2013-01-23 11:27:00,
2013-01-23 05:32:00,3.7,-9.2,30.09,WSW,254,0.0,0.0,54,0.00,CLR,,0.00,WeatherDisplay:10.37,2013-01-23 11:32:00,
2013-01-23 05:37:00,3.7,-9.2,30.09,WSW,254,0.0,0.0,54,0.00,CLR,,0.00,WeatherDisplay:10.37,2013-01-23 11:37:00,
2013-01-23 05:42:00,3.7,-9.2,30.09,WSW,254,0.0,0.0,54,0.00,CLR,,0.00,WeatherDisplay:10.37,2013-01-23 11:42:00,
2013-01-23 05:47:00,3.7,-9.2,30.09,WSW,254,0.0,0.0,54,0.00,CLR,,0.00,WeatherDisplay:10.37,2013-01-23 11:47:00,
2013-01-23 05:53:00,3.7,-9.2,30.09,WSW,254,0.0,0.0,54,0.00,CLR,,0.00,WeatherDisplay:10.37,2013-01-23 11:53:00,
2013-01-23 05:58:00,3.7,-9.2,30.09,SW,220,0.0,0.0,54,0.00,CLR,,0.00,WeatherDisplay:10.37,2013-01-23 11:58:00,
2013-01-23 06:03:00,3.7,-9.2,30.09,SW,220,0.0,0.0,54,0.00,CLR,,0.00,WeatherDisplay:10.37,2013-01-23 12:03:00,
2013-01-23 06:08:00,3.9,-9.1,30.09,SW,220,0.0,0.0,54,0.00,CLR,,0.00,WeatherDisplay:10.37,2013-01-23 12:08:00,
2013-01-23 06:14:00,3.9,-9.1,30.09,SW,220,0.0,0.0,54,0.00,CLR,,0.00,WeatherDisplay:10.37,2013-01-23 12:14:00,
2013-01-23 06:19:00,3.9,-9.1,30.09,SW,220,0.0,0.0,54,0.00,CLR,,0.00,WeatherDisplay:10.37,2013-01-23 12:19:00,
2013-01-23 06:24:00,4.1,-8.9,30.09,SW,220,0.0,0.0,54,0.00,CLR,,0.00,WeatherDisplay:10.37,2013-01-23 12:24:00,
2013-01-23 06:29:00,4.1,-8.9,30.09,SSW,206,0.0,0.0,54,0.00,CLR,,0.00,WeatherDisplay:10.37,2013-01-23 12:29:00,
2013-01-23 06:34:00,4.1,-8.9,30.06,SSW,206,0.0,0.0,54,0.00,CLR,,0.00,WeatherDisplay:10.37,2013-01-23 12:34:00,
2013-01-23 06:39:00,4.1,-8.9,30.06,SSW,206,0.0,0.0,54,0.00,CLR,,0.00,WeatherDisplay:10.37,2013-01-23 12:39:00,
2013-01-23 06:45:00,4.1,-8.9,30.06,SSW,206,0.0,0.0,54,0.00,CLR,,0.00,WeatherDisplay:10.37,2013-01-23 12:45:00,
2013-01-23 06:50:00,4.1,-8.9,30.09,SSW,206,0.0,0.0,54,0.00,CLR,,0.00,WeatherDisplay:10.37,2013-01-23 12:50:00,
2013-01-23 06:55:00,4.1,-8.9,30.09,SSW,206,0.0,0.0,54,0.00,CLR,,0.00,WeatherDisplay:10.37,2013-01-23 12:55:00,
2013-01-23 07:00:00,4.1,-8.9,30.09,SSW,206,0.0,0.0,54,0.00,CLR,,0.00,WeatherDisplay:10.37,2013-01-23 13:00:00,
2013-01-23 07:05:00,4.1,-8.9,30.09,SSW,206,0.0,0.0,54,0.00,CLR,,0.00,WeatherDisplay:10.37,2013-01-23 13:05:00,
2013-01-23 07:10:00,4.1,-8.9,30.09,SSW,205,0.0,0.0,54,0.00,CLR,,0.00,WeatherDisplay:10.37,2013-01-23 13:10:00,
2013-01-23 07:16:00,4.1,-8.9,30.09,SSW,206,0.0,0.0,54,0.00,CLR,,0.00,WeatherDisplay:10.37,2013-01-23 13:16:00,
2013-01-23 07:21:00,4.1,-8.9,30.06,SSW,206,0.0,0.0,54,0.00,CLR,,0.00,WeatherDisplay:10.37,2013-01-23 13:21:00,
2013-01-23 07:26:00,4.1,-8.9,30.06,SSW,206,0.0,0.0,54,0.00,CLR,,0.00,WeatherDisplay:10.37,2013-01-23 13:26:00,
2013-01-23 07:31:00,4.3,-8.7,30.06,SSW,206,0.0,0.0,54,0.00,CLR,,0.00,WeatherDisplay:10.37,2013-01-23 13:31:00,
2013-01-23 07:36:00,4.3,-8.7,30.06,SSW,206,0.0,0.0,54,0.00,CLR,,0.00,WeatherDisplay:10.37,2013-01-23 13:36:00,
2013-01-23 07:41:00,4.5,-8.6,30.06,SSW,205,0.0,0.0,54,0.00,CLR,,0.00,WeatherDisplay:10.37,2013-01-23 13:41:00,
2013-01-23 07:47:00,4.5,-8.6,30.06,SSW,205,0.0,0.0,54,0.00,CLR,,0.00,WeatherDisplay:10.37,2013-01-23 13:47:00,
2013-01-23 07:52:00,4.5,-8.6,30.06,SSW,206,0.0,0.0,54,0.00,CLR,,0.00,WeatherDisplay:10.37,2013-01-23 13:52:00,
2013-01-23 07:57:00,4.5,-8.6,30.06,SSW,206,0.0,0.0,54,0.00,CLR,,0.00,WeatherDisplay:10.37,2013-01-23 13:57:00,
2013-01-23 08:02:00,4.6,-8.4,30.06,SSW,205,0.0,0.0,54,0.00,CLR,,0.00,WeatherDisplay:10.37,2013-01-23 14:02:00,
2013-01-23 08:07:00,4.8,-8.2,30.06,SSW,205,0.0,0.0,54,0.00,CLR,,0.00,WeatherDisplay:10.37,2013-01-23 14:07:00,
2013-01-23 08:13:00,5.0,-8.0,30.06,SSE,165,0.0,0.0,54,0.00,CLR,,0.00,WeatherDisplay:10.37,2013-01-23 14:13:00,
2013-01-23 08:18:00,5.4,-7.7,30.06,South,184,0.0,0.0,54,0.00,CLR,,0.00,WeatherDisplay:10.37,2013-01-23 14:18:00,
2013-01-23 08:23:00,5.4,-7.7,30.06,SE,144,0.0,0.0,54,0.00,CLR,,0.00,WeatherDisplay:10.37,2013-01-23 14:23:00,
2013-01-23 08:28:00,5.5,-7.5,30.06,SSW,203,3.5,0.0,54,0.00,CLR,,0.00,WeatherDisplay:10.37,2013-01-23 14:28:00,
2013-01-23 08:34:00,5.7,-7.4,30.06,SSW,198,3.5,3.5,54,0.00,CLR,,0.00,WeatherDisplay:10.37,2013-01-23 14:34:00,
2013-01-23 08:39:00,5.9,-7.2,30.06,SW,214,3.5,3.6,54,0.00,CLR,,0.00,WeatherDisplay:10.37,2013-01-23 14:39:00,
2013-01-23 08:44:00,6.1,-7.0,30.06,SW,219,3.5,3.5,54,0.00,CLR,,0.00,WeatherDisplay:10.37,2013-01-23 14:44:00,
2013-01-23 08:49:00,6.3,-6.9,30.06,SSW,201,3.5,0.0,54,0.00,CLR,,0.00,WeatherDisplay:10.37,2013-01-23 14:49:00,
2013-01-23 08:54:00,6.8,-6.4,30.06,WSW,239,3.5,3.5,54,0.00,CLR,,0.00,WeatherDisplay:10.37,2013-01-23 14:54:00,
2013-01-23 08:59:00,7.2,-6.0,30.06,WSW,241,0.0,0.0,54,0.00,CLR,,0.00,WeatherDisplay:10.37,2013-01-23 14:59:00,
2013-01-23 09:04:00,7.5,-5.7,30.06,WSW,239,0.0,0.0,54,0.00,CLR,,0.00,WeatherDisplay:10.37,2013-01-23 15:04:00,
2013-01-23 09:10:00,8.1,-5.2,30.06,WSW,240,0.0,0.0,54,0.00,CLR,,0.00,WeatherDisplay:10.37,2013-01-23 15:10:00,
2013-01-23 09:15:00,8.6,-4.7,30.06,WSW,239,0.0,0.0,54,0.00,CLR,,0.00,WeatherDisplay:10.37,2013-01-23 15:15:00,
2013-01-23 09:20:00,9.0,-4.3,30.06,SW,222,0.0,0.0,54,0.00,CLR,,0.00,WeatherDisplay:10.37,2013-01-23 15:20:00,
2013-01-23 09:25:00,9.1,-4.2,30.06,SW,214,3.5,3.6,54,0.00,CLR,,0.00,WeatherDisplay:10.37,2013-01-23 15:25:00,
2013-01-23 09:30:00,9.3,-4.0,30.06,SW,225,2.3,0.0,54,0.00,CLR,,0.00,WeatherDisplay:10.37,2013-01-23 15:30:00,
2013-01-23 09:35:00,9.5,-3.8,30.06,SW,225,2.3,0.0,54,0.00,CLR,,0.00,WeatherDisplay:10.37,2013-01-23 15:35:00,
2013-01-23 09:40:00,10.0,-3.3,30.06,SSW,204,0.0,0.0,54,0.00,CLR,,0.00,WeatherDisplay:10.37,2013-01-23 15:40:00,
2013-01-23 09:46:00,10.0,-3.3,30.06,SSW,213,0.0,0.0,54,0.00,CLR,,0.00,WeatherDisplay:10.37,2013-01-23 15:46:00,
2013-01-23 09:51:00,10.2,-3.2,30.06,SW,214,0.0,0.0,54,0.00,CLR,,0.00,WeatherDisplay:10.37,2013-01-23 15:51:00,
2013-01-23 09:56:00,10.2,-3.2,30.06,SW,216,2.3,2.3,54,0.00,CLR,,0.00,WeatherDisplay:10.37,2013-01-23 15:56:00,
2013-01-23 10:01:00,10.4,-3.0,30.06,SW,216,0.0,0.0,54,0.00,CLR,,0.00,WeatherDisplay:10.37,2013-01-23 16:01:00,
2013-01-23 10:06:00,10.8,-2.6,30.06,SW,221,2.3,2.3,54,0.00,CLR,,0.00,WeatherDisplay:10.37,2013-01-23 16:06:00,
2013-01-23 10:12:00,10.9,-2.5,30.06,West,274,2.3,0.0,54,0.00,CLR,,0.00,WeatherDisplay:10.37,2013-01-23 16:12:00,
2013-01-23 10:17:00,11.1,-2.3,30.06,SW,235,3.5,3.6,54,0.00,CLR,,0.00,WeatherDisplay:10.37,2013-01-23 16:17:00,
2013-01-23 10:22:00,11.3,-2.1,30.06,WSW,247,3.5,3.5,54,0.00,CLR,,0.00,WeatherDisplay:10.37,2013-01-23 16:22:00,
2013-01-23 10:27:00,11.7,-1.8,30.06,SW,220,3.5,4.0,54,0.00,CLR,,0.00,WeatherDisplay:10.37,2013-01-23 16:27:00,
2013-01-23 10:32:00,12.0,-1.5,30.06,WSW,258,3.5,3.5,54,0.00,CLR,,0.00,WeatherDisplay:10.37,2013-01-23 16:32:00,
2013-01-23 10:37:00,12.2,-1.3,30.06,SSW,203,5.8,5.8,54,0.00,CLR,,0.00,WeatherDisplay:10.37,2013-01-23 16:37:00,
2013-01-23 10:43:00,12.7,-0.8,30.06,WNW,300,3.5,3.5,54,0.00,CLR,,0.00,WeatherDisplay:10.37,2013-01-23 16:43:00,
2013-01-23 10:48:00,13.5,-0.1,30.06,SW,215,5.8,5.8,54,0.00,CLR,,0.00,WeatherDisplay:10.37,2013-01-23 16:48:00,
2013-01-23 10:53:00,13.8,0.2,30.06,WNW,283,4.6,4.6,54,0.00,CLR,,0.00,WeatherDisplay:10.37,2013-01-23 16:53:00,
2013-01-23 10:58:00,14.0,1.9,30.06,WNW,286,4.6,4.6,58,0.00,CLR,,0.00,WeatherDisplay:10.37,2013-01-23 16:58:00,
2013-01-23 11:03:00,13.8,1.7,30.03,WSW,239,5.8,5.8,58,0.00,CLR,,0.00,WeatherDisplay:10.37,2013-01-23 17:03:00,
2013-01-23 11:08:00,14.0,1.9,30.03,West,277,3.5,3.5,58,0.00,CLR,,0.00,WeatherDisplay:10.37,2013-01-23 17:08:00,
2013-01-23 11:13:00,14.4,1.9,30.03,West,280,3.5,3.5,57,0.00,CLR,,0.00,WeatherDisplay:10.37,2013-01-23 17:13:00,
2013-01-23 11:18:00,14.5,2.1,30.03,WNW,291,4.0,4.0,57,0.00,CLR,,0.00,WeatherDisplay:10.37,2013-01-23 17:18:00,
2013-01-23 11:24:00,14.5,2.1,30.03,WSW,247,3.5,3.6,57,0.00,CLR,,0.00,WeatherDisplay:10.37,2013-01-23 17:24:00,
2013-01-23 11:29:00,14.7,2.2,30.03,WSW,248,3.5,3.5,57,0.00,CLR,,0.00,WeatherDisplay:10.37,2013-01-23 17:29:00,
2013-01-23 11:34:00,14.5,1.7,30.03,West,273,3.5,3.5,56,0.00,CLR,,0.00,WeatherDisplay:10.37,2013-01-23 17:34:00,
2013-01-23 11:39:00,14.5,1.7,30.03,NW,325,3.5,3.5,56,0.00,CLR,,0.00,WeatherDisplay:10.37,2013-01-23 17:39:00,
2013-01-23 11:44:00,14.5,1.7,30.03,NW,317,4.6,4.6,56,0.00,CLR,,0.00,WeatherDisplay:10.37,2013-01-23 17:44:00,
2013-01-23 11:49:00,14.4,1.5,30.03,West,264,3.6,3.6,56,0.00,CLR,,0.00,WeatherDisplay:10.37,2013-01-23 17:49:00,
2013-01-23 11:55:00,14.4,1.5,30.03,SW,224,5.8,5.8,56,0.00,CLR,,0.00,WeatherDisplay:10.37,2013-01-23 17:55:00,
2013-01-23 12:01:00,14.2,1.3,30.03,West,271,3.6,3.6,56,0.00,CLR,,0.00,WeatherDisplay:10.37,2013-01-23 18:01:00,
2013-01-23 12:06:00,14.4,1.5,30.03,NW,322,5.8,5.8,56,0.00,CLR,,0.00,WeatherDisplay:10.37,2013-01-23 18:06:00,
2013-01-23 12:11:00,14.4,1.5,30.03,West,266,5.8,5.8,56,0.00,CLR,,0.00,WeatherDisplay:10.37,2013-01-23 18:11:00,
2013-01-23 12:17:00,14.4,1.5,30.03,NW,320,4.6,4.6,56,0.00,CLR,,0.00,WeatherDisplay:10.37,2013-01-23 18:17:00,
2013-01-23 12:23:00,14.5,1.7,30.03,WNW,296,5.8,5.8,56,0.00,CLR,,0.00,WeatherDisplay:10.37,2013-01-23 18:23:00,
2013-01-23 12:28:00,15.1,2.2,30.03,West,261,5.8,5.8,56,0.00,CLR,,0.00,WeatherDisplay:10.37,2013-01-23 18:28:00,
2013-01-23 12:34:00,15.3,2.0,30.00,West,264,3.5,3.6,55,0.00,CLR,,0.00,WeatherDisplay:10.37,2013-01-23 18:34:00,
2013-01-23 12:39:00,15.6,2.3,30.00,NW,311,5.8,5.8,55,0.00,CLR,,0.00,WeatherDisplay:10.37,2013-01-23 18:39:00,
2013-01-23 12:45:00,15.4,2.1,30.00,West,262,5.8,5.8,55,0.00,CLR,,0.00,WeatherDisplay:10.37,2013-01-23 18:45:00,
2013-01-23 12:50:00,15.4,2.1,30.00,WNW,290,5.8,5.8,55,0.00,CLR,,0.00,WeatherDisplay:10.37,2013-01-23 18:50:00,
2013-01-23 12:56:00,16.2,2.8,30.00,West,263,4.6,4.6,55,0.00,CLR,,0.00,WeatherDisplay:10.37,2013-01-23 18:56:00,
2013-01-23 13:01:00,16.3,3.0,30.00,SW,232,3.6,3.6,55,0.00,CLR,,0.00,WeatherDisplay:10.37,2013-01-23 19:01:00,
2013-01-23 13:09:00,16.5,2.7,30.00,WSW,253,5.4,5.4,54,0.00,CLR,,0.00,WeatherDisplay:10.37,2013-01-23 19:09:00,
2013-01-23 13:14:00,16.7,3.3,30.00,West,277,3.5,3.5,55,0.00,CLR,,0.00,WeatherDisplay:10.37,2013-01-23 19:14:00,
2013-01-23 13:19:00,16.9,3.5,30.00,NW,318,5.8,5.8,55,0.00,CLR,,0.00,WeatherDisplay:10.37,2013-01-23 19:19:00,
2013-01-23 13:24:00,16.7,3.3,30.00,WNW,292,5.8,5.8,55,0.00,CLR,,0.00,WeatherDisplay:10.37,2013-01-23 19:24:00,
2013-01-23 13:29:00,16.3,3.0,30.00,NW,315,3.5,3.6,55,0.00,CLR,,0.00,WeatherDisplay:10.37,2013-01-23 19:29:00,
2013-01-23 13:35:00,16.5,3.1,30.00,NW,310,8.1,8.1,55,0.00,CLR,,0.00,WeatherDisplay:10.37,2013-01-23 19:35:00,
2013-01-23 13:40:00,16.3,3.0,30.00,WNW,285,5.8,5.8,55,0.00,CLR,,0.00,WeatherDisplay:10.37,2013-01-23 19:40:00,
2013-01-23 13:45:00,16.0,2.6,30.00,WNW,301,8.1,8.1,55,0.00,CLR,,0.00,WeatherDisplay:10.37,2013-01-23 19:45:00,
2013-01-23 13:52:00,15.1,1.8,30.00,North,349,5.8,5.8,55,0.00,CLR,,0.00,WeatherDisplay:10.37,2013-01-23 19:52:00,
2013-01-23 13:57:00,14.5,1.3,30.00,WSW,253,8.1,8.1,55,0.00,CLR,,0.00,WeatherDisplay:10.37,2013-01-23 19:57:00,
2013-01-23 14:03:00,14.4,1.1,30.03,WSW,246,5.8,5.8,55,0.00,CLR,,0.00,WeatherDisplay:10.37,2013-01-23 20:03:00,
2013-01-23 14:09:00,14.4,1.1,30.03,WNW,288,10.4,10.4,55,0.00,CLR,,0.00,WeatherDisplay:10.37,2013-01-23 20:09:00,
2013-01-23 14:15:00,14.7,1.5,30.03,WSW,244,8.1,8.1,55,0.00,CLR,,0.00,WeatherDisplay:10.37,2013-01-23 20:15:00,
2013-01-23 14:20:00,14.5,1.3,30.03,WNW,293,8.1,8.1,55,0.00,CLR,,0.00,WeatherDisplay:10.37,2013-01-23 20:20:00,
2013-01-23 14:25:00,14.4,1.1,30.03,NNW,327,5.8,5.8,55,0.00,CLR,,0.00,WeatherDisplay:10.37,2013-01-23 20:25:00,
2013-01-23 14:30:00,14.4,1.1,30.03,West,274,8.1,8.1,55,0.00,CLR,,0.00,WeatherDisplay:10.37,2013-01-23 20:30:00,
2013-01-23 14:35:00,14.4,1.1,30.03,NNW,342,10.4,10.4,55,0.00,CLR,,0.00,WeatherDisplay:10.37,2013-01-23 20:35:00,
2013-01-23 14:41:00,14.4,0.7,30.03,West,270,8.1,8.1,54,0.00,CLR,,0.00,WeatherDisplay:10.37,2013-01-23 20:41:00,
2013-01-23 14:46:00,14.2,0.6,30.03,WNW,294,8.1,8.1,54,0.00,CLR,,0.00,WeatherDisplay:10.37,2013-01-23 20:46:00,
2013-01-23 14:51:00,13.8,0.6,30.06,West,265,4.6,4.6,55,0.00,CLR,,0.00,WeatherDisplay:10.37,2013-01-23 20:51:00,
2013-01-23 14:56:00,13.6,0.4,30.06,NNW,333,6.9,6.9,55,0.00,CLR,,0.00,WeatherDisplay:10.37,2013-01-23 20:56:00,
2013-01-23 15:01:00,13.5,0.3,30.06,WNW,300,8.1,8.1,55,0.00,CLR,,0.00,WeatherDisplay:10.37,2013-01-23 21:01:00,
2013-01-23 15:06:00,13.5,0.3,30.06,WNW,293,8.1,8.1,55,0.00,CLR,,0.00,WeatherDisplay:10.37,2013-01-23 21:06:00,
2013-01-23 15:11:00,12.9,-0.2,30.06,NW,310,8.1,8.1,55,0.00,CLR,,0.00,WeatherDisplay:10.37,2013-01-23 21:11:00,
2013-01-23 15:17:00,12.6,-0.6,30.06,West,274,10.4,10.4,55,0.00,CLR,,0.00,WeatherDisplay:10.37,2013-01-23 21:17:00,
2013-01-23 15:22:00,12.0,-1.1,30.06,NNW,335,7.6,7.6,55,0.00,CLR,,0.00,WeatherDisplay:10.37,2013-01-23 21:22:00,
2013-01-23 15:27:00,11.3,-1.8,30.06,WNW,301,11.5,11.5,55,0.00,CLR,,0.00,WeatherDisplay:10.37,2013-01-23 21:27:00,
2013-01-23 15:32:00,11.1,-1.9,30.09,West,272,8.1,8.1,55,0.00,CLR,,0.00,WeatherDisplay:10.37,2013-01-23 21:32:00,
2013-01-23 15:38:00,11.5,-1.6,30.09,North,0,5.8,5.8,55,0.00,CLR,,0.00,WeatherDisplay:10.37,2013-01-23 21:38:00,
2013-01-23 15:43:00,11.7,-1.4,30.09,North,357,12.7,12.7,55,0.00,CLR,,0.00,WeatherDisplay:10.37,2013-01-23 21:43:00,
2013-01-23 15:48:00,11.1,-1.9,30.09,NNW,335,10.4,10.4,55,0.00,CLR,,0.00,WeatherDisplay:10.37,2013-01-23 21:48:00,
2013-01-23 15:53:00,10.6,-2.4,30.09,NNW,327,6.9,6.9,55,0.00,CLR,,0.00,WeatherDisplay:10.37,2013-01-23 21:53:00,
2013-01-23 15:58:00,10.2,-2.8,30.09,NW,325,8.1,8.1,55,0.00,CLR,,0.00,WeatherDisplay:10.37,2013-01-23 21:58:00,
2013-01-23 16:03:00,9.9,-3.1,30.12,WNW,290,5.8,5.8,55,0.00,CLR,,0.00,WeatherDisplay:10.37,2013-01-23 22:03:00,
2013-01-23 16:08:00,9.5,-3.4,30.12,NNW,328,10.4,10.4,55,0.00,CLR,,0.00,WeatherDisplay:10.37,2013-01-23 22:08:00,
2013-01-23 16:14:00,9.3,-3.6,30.12,NNW,328,8.3,8.3,55,0.00,CLR,,0.00,WeatherDisplay:10.37,2013-01-23 22:14:00,
2013-01-23 16:19:00,8.8,-4.1,30.12,NW,305,8.1,8.1,55,0.00,CLR,,0.00,WeatherDisplay:10.37,2013-01-23 22:19:00,
2013-01-23 16:24:00,8.4,-4.5,30.12,WNW,302,10.4,10.4,55,0.00,CLR,,0.00,WeatherDisplay:10.37,2013-01-23 22:24:00,
2013-01-23 16:30:00,8.4,-4.5,30.12,NW,325,8.1,8.1,55,0.00,CLR,,0.00,WeatherDisplay:10.37,2013-01-23 22:30:00,
2013-01-23 16:35:00,8.4,-4.5,30.15,NNE,24,12.7,12.7,55,0.00,CLR,,0.00,WeatherDisplay:10.37,2013-01-23 22:35:00,
2013-01-23 16:40:00,7.9,-5.0,30.15,NNW,343,12.7,12.7,55,0.00,CLR,,0.00,WeatherDisplay:10.37,2013-01-23 22:40:00,
2013-01-23 16:45:00,7.5,-5.3,30.15,West,274,5.8,5.8,55,0.00,CLR,,0.00,WeatherDisplay:10.37,2013-01-23 22:45:00,
2013-01-23 16:50:00,7.2,-5.6,30.15,North,10,9.2,9.2,55,0.00,CLR,,0.00,WeatherDisplay:10.37,2013-01-23 22:50:00,
2013-01-23 16:56:00,6.6,-6.1,30.15,WNW,300,9.2,9.2,55,0.00,CLR,,0.00,WeatherDisplay:10.37,2013-01-23 22:56:00,
2013-01-23 17:01:00,6.1,-6.7,30.15,NNW,328,8.1,8.1,55,0.00,CLR,,0.00,WeatherDisplay:10.37,2013-01-23 23:01:00,
2013-01-23 17:06:00,5.7,-7.0,30.17,NNW,344,10.4,10.4,55,0.00,CLR,,0.00,WeatherDisplay:10.37,2013-01-23 23:06:00,
2013-01-23 17:11:00,5.4,-7.3,30.17,NNW,338,5.8,5.8,55,0.00,CLR,,0.00,WeatherDisplay:10.37,2013-01-23 23:11:00,
2013-01-23 17:16:00,5.0,-7.7,30.17,North,349,8.1,8.1,55,0.00,CLR,,0.00,WeatherDisplay:10.37,2013-01-23 23:16:00,
2013-01-23 17:21:00,4.6,-8.0,30.17,NNW,337,11.5,11.5,55,0.00,CLR,,0.00,WeatherDisplay:10.37,2013-01-23 23:21:00,
2013-01-23 17:26:00,4.5,-8.2,30.17,North,350,6.9,7.2,55,0.00,CLR,,0.00,WeatherDisplay:10.37,2013-01-23 23:26:00,
2013-01-23 17:32:00,4.1,-8.5,30.17,North,6,5.8,5.8,55,0.00,CLR,,0.00,WeatherDisplay:10.37,2013-01-23 23:32:00,
2013-01-23 17:37:00,3.7,-8.9,30.20,North,353,8.1,8.1,55,0.00,CLR,,0.00,WeatherDisplay:10.37,2013-01-23 23:37:00,
2013-01-23 17:42:00,3.7,-8.9,30.20,NNE,12,10.4,10.4,55,0.00,CLR,,0.00,WeatherDisplay:10.37,2013-01-23 23:42:00,
2013-01-23 17:47:00,3.4,-9.2,30.20,North,353,5.8,5.8,55,0.00,CLR,,0.00,WeatherDisplay:10.37,2013-01-23 23:47:00,
2013-01-23 17:52:00,3.2,-9.4,30.20,NNE,14,8.1,8.1,55,0.00,CLR,,0.00,WeatherDisplay:10.37,2013-01-23 23:52:00,
2013-01-23 17:58:00,3.0,-9.5,30.20,North,7,8.1,8.1,55,0.00,CLR,,0.00,WeatherDisplay:10.37,2013-01-23 23:58:00,
2013-01-23 18:03:00,2.8,-9.7,30.23,NNW,337,6.3,6.3,55,0.00,CLR,,0.00,WeatherDisplay:10.37,2013-01-24 00:03:00,
2013-01-23 18:08:00,2.5,-10.0,30.23,NNW,341,5.8,5.8,55,0.00,CLR,,0.00,WeatherDisplay:10.37,2013-01-24 00:08:00,
2013-01-23 18:13:00,2.3,-10.2,30.23,NW,321,4.6,4.6,55,0.00,CLR,,0.00,WeatherDisplay:10.37,2013-01-24 00:13:00,
2013-01-23 18:18:00,2.1,-10.4,30.23,ENE,59,5.8,5.8,55,0.00,CLR,,0.00,WeatherDisplay:10.37,2013-01-24 00:18:00,
2013-01-23 18:23:00,1.9,-10.5,30.23,East,98,6.9,6.9,55,0.00,CLR,,0.00,WeatherDisplay:10.37,2013-01-24 00:23:00,
2013-01-23 18:28:00,1.8,-10.7,30.23,NE,46,9.2,9.2,55,0.00,CLR,,0.00,WeatherDisplay:10.37,2013-01-24 00:28:00,
2013-01-23 18:34:00,1.6,-10.9,30.26,NNW,339,9.2,9.2,55,0.00,CLR,,0.00,WeatherDisplay:10.37,2013-01-24 00:34:00,
2013-01-23 18:39:00,1.4,-11.1,30.26,ENE,58,8.1,8.1,55,0.00,CLR,,0.00,WeatherDisplay:10.37,2013-01-24 00:39:00,
2013-01-23 18:44:00,1.2,-11.2,30.26,ENE,66,8.1,8.1,55,0.00,CLR,,0.00,WeatherDisplay:10.37,2013-01-24 00:44:00,
2013-01-23 18:49:00,0.9,-11.6,30.29,NNE,26,8.1,8.1,55,0.00,CLR,,0.00,WeatherDisplay:10.37,2013-01-24 00:49:00,
2013-01-23 18:55:00,0.5,-11.9,30.29,NNE,32,9.2,9.2,55,0.00,CLR,,0.00,WeatherDisplay:10.37,2013-01-24 00:55:00,
2013-01-23 19:00:00,0.3,-12.1,30.29,NNE,21,10.4,10.4,55,0.00,CLR,,0.00,WeatherDisplay:10.37,2013-01-24 01:00:00,
2013-01-23 19:05:00,0.0,-12.4,30.29,NNW,345,3.5,3.6,55,0.00,CLR,,0.00,WeatherDisplay:10.37,2013-01-24 01:05:00,
2013-01-23 19:10:00,-0.2,-12.6,30.29,NNW,332,8.0,8.0,55,0.00,CLR,,0.00,WeatherDisplay:10.37,2013-01-24 01:10:00,
2013-01-23 19:15:00,-0.6,-12.9,30.29,North,357,5.8,5.8,55,0.00,CLR,,0.00,WeatherDisplay:10.37,2013-01-24 01:15:00,
2013-01-23 19:20:00,-0.8,-13.1,30.29,North,0,5.8,5.8,55,0.00,CLR,,0.00,WeatherDisplay:10.37,2013-01-24 01:20:00,
2013-01-23 19:25:00,-0.9,-13.3,30.29,NNW,346,8.1,8.1,55,0.00,CLR,,0.00,WeatherDisplay:10.37,2013-01-24 01:25:00,
2013-01-23 19:31:00,-1.1,-13.4,30.29,SE,138,8.1,8.1,55,0.00,CLR,,0.00,WeatherDisplay:10.37,2013-01-24 01:31:00,
2013-01-23 19:36:00,-1.3,-13.6,30.32,NE,44,8.1,8.1,55,0.00,CLR,,0.00,WeatherDisplay:10.37,2013-01-24 01:36:00,
2013-01-23 19:41:00,-1.3,-13.6,30.32,NNW,346,5.8,5.8,55,0.00,CLR,,0.00,WeatherDisplay:10.37,2013-01-24 01:41:00,
2013-01-23 19:46:00,-1.7,-13.9,30.32,East,92,3.5,3.5,55,0.00,CLR,,0.00,WeatherDisplay:10.37,2013-01-24 01:46:00,
2013-01-23 19:51:00,-1.8,-14.1,30.32,NW,324,5.8,5.8,55,0.00,CLR,,0.00,WeatherDisplay:10.37,2013-01-24 01:51:00,
2013-01-23 19:57:00,-2.2,-14.4,30.32,NNW,327,4.0,4.0,55,0.00,CLR,,0.00,WeatherDisplay:10.37,2013-01-24 01:57:00,
2013-01-23 20:02:00,-2.2,-14.4,30.32,ESE,106,5.8,5.8,55,0.00,CLR,,0.00,WeatherDisplay:10.37,2013-01-24 02:02:00,
2013-01-23 20:07:00,-2.4,-14.6,30.32,ESE,117,5.8,5.8,55,0.00,CLR,,0.00,WeatherDisplay:10.37,2013-01-24 02:07:00,
2013-01-23 20:13:00,-2.6,-14.8,30.32,NW,320,3.6,3.6,55,0.00,CLR,,0.00,WeatherDisplay:10.37,2013-01-24 02:13:00,
2013-01-23 20:18:00,-2.7,-14.9,30.32,NNW,332,8.1,8.1,55,0.00,CLR,,0.00,WeatherDisplay:10.37,2013-01-24 02:18:00,
2013-01-23 20:23:00,-2.9,-15.1,30.32,NNW,329,5.8,5.8,55,0.00,CLR,,0.00,WeatherDisplay:10.37,2013-01-24 02:23:00,
2013-01-23 20:28:00,-3.1,-15.3,30.32,NNW,343,5.8,5.8,55,0.00,CLR,,0.00,WeatherDisplay:10.37,2013-01-24 02:28:00,
2013-01-23 20:33:00,-3.1,-15.3,30.35,NNW,330,5.8,5.8,55,0.00,CLR,,0.00,WeatherDisplay:10.37,2013-01-24 02:33:00,
2013-01-23 20:38:00,-3.3,-15.5,30.35,NNW,344,3.5,3.5,55,0.00,CLR,,0.00,WeatherDisplay:10.37,2013-01-24 02:38:00,
2013-01-23 20:43:00,-3.5,-15.6,30.35,NW,315,2.3,0.0,55,0.00,CLR,,0.00,WeatherDisplay:10.37,2013-01-24 02:43:00,
2013-01-23 20:49:00,-3.6,-15.8,30.38,NNW,342,4.6,4.6,55,0.00,CLR,,0.00,WeatherDisplay:10.37,2013-01-24 02:49:00,
2013-01-23 20:54:00,-3.8,-16.0,30.38,NNW,327,3.5,3.5,55,0.00,CLR,,0.00,WeatherDisplay:10.37,2013-01-24 02:54:00,
2013-01-23 20:59:00,-3.8,-16.0,30.38,NNW,329,5.8,5.8,55,0.00,CLR,,0.00,WeatherDisplay:10.37,2013-01-24 02:59:00,
2013-01-23 21:04:00,-4.0,-16.1,30.35,NW,326,3.5,3.5,55,0.00,CLR,,0.00,WeatherDisplay:10.37,2013-01-24 03:04:00,
2013-01-23 21:09:00,-4.0,-16.1,30.35,North,357,3.5,3.5,55,0.00,CLR,,0.00,WeatherDisplay:10.37,2013-01-24 03:09:00,
2013-01-23 21:14:00,-4.2,-16.3,30.35,NW,317,3.5,3.5,55,0.00,CLR,,0.00,WeatherDisplay:10.37,2013-01-24 03:14:00,
2013-01-23 21:19:00,-4.4,-16.5,30.38,NNW,342,4.9,4.9,55,0.00,CLR,,0.00,WeatherDisplay:10.37,2013-01-24 03:19:00,
2013-01-23 21:25:00,-4.4,-16.5,30.38,NW,326,2.3,0.0,55,0.00,CLR,,0.00,WeatherDisplay:10.37,2013-01-24 03:25:00,
2013-01-23 21:30:00,-4.5,-16.6,30.38,North,4,3.5,0.0,55,0.00,CLR,,0.00,WeatherDisplay:10.37,2013-01-24 03:30:00,
2013-01-23 21:35:00,-4.7,-16.8,30.38,NNW,328,4.0,4.0,55,0.00,CLR,,0.00,WeatherDisplay:10.37,2013-01-24 03:35:00,
2013-01-23 21:40:00,-4.7,-16.8,30.38,NNW,341,3.5,3.5,55,0.00,CLR,,0.00,WeatherDisplay:10.37,2013-01-24 03:40:00,
2013-01-23 21:45:00,-4.7,-16.8,30.38,NW,313,5.8,5.8,55,0.00,CLR,,0.00,WeatherDisplay:10.37,2013-01-24 03:45:00,
2013-01-23 21:51:00,-4.9,-17.0,30.38,WNW,303,3.5,3.6,55,0.00,CLR,,0.00,WeatherDisplay:10.37,2013-01-24 03:51:00,
2013-01-23 21:56:00,-5.1,-17.1,30.38,NW,316,3.5,3.5,55,0.00,CLR,,0.00,WeatherDisplay:10.37,2013-01-24 03:56:00,
2013-01-23 22:01:00,-5.3,-17.3,30.38,NW,307,4.6,0.0,55,0.00,CLR,,0.00,WeatherDisplay:10.37,2013-01-24 04:01:00,
2013-01-23 22:06:00,-5.4,-17.5,30.38,NNW,343,3.5,3.5,55,0.00,CLR,,0.00,WeatherDisplay:10.37,2013-01-24 04:06:00,
2013-01-23 22:11:00,-5.4,-17.5,30.38,WNW,301,3.5,3.5,55,0.00,CLR,,0.00,WeatherDisplay:10.37,2013-01-24 04:11:00,
2013-01-23 22:17:00,-5.6,-17.7,30.38,NW,319,3.5,3.5,55,0.00,CLR,,0.00,WeatherDisplay:10.37,2013-01-24 04:17:00,
2013-01-23 22:22:00,-5.8,-17.8,30.41,WNW,298,2.3,0.0,55,0.00,CLR,,0.00,WeatherDisplay:10.37,2013-01-24 04:22:00,
2013-01-23 22:27:00,-5.8,-17.8,30.41,North,357,3.5,3.5,55,0.00,CLR,,0.00,WeatherDisplay:10.37,2013-01-24 04:27:00,
2013-01-23 22:32:00,-6.0,-18.0,30.41,NW,322,2.3,0.0,55,0.00,CLR,,0.00,WeatherDisplay:10.37,2013-01-24 04:32:00,
2013-01-23 22:38:00,-6.2,-18.2,30.41,NW,316,3.5,3.5,55,0.00,CLR,,0.00,WeatherDisplay:10.37,2013-01-24 04:38:00,
2013-01-23 22:43:00,-6.3,-18.3,30.41,NNW,338,3.5,0.0,55,0.00,CLR,,0.00,WeatherDisplay:10.37,2013-01-24 04:43:00,
2013-01-23 22:48:00,-6.3,-18.3,30.41,NW,318,5.8,5.8,55,0.00,CLR,,0.00,WeatherDisplay:10.37,2013-01-24 04:48:00,
2013-01-23 22:53:00,-6.5,-18.5,30.41,NNW,344,3.5,3.5,55,0.00,CLR,,0.00,WeatherDisplay:10.37,2013-01-24 04:53:00,
2013-01-23 22:58:00,-6.5,-18.5,30.41,NNW,341,3.5,3.5,55,0.00,CLR,,0.00,WeatherDisplay:10.37,2013-01-24 04:58:00,
2013-01-23 23:00:00,-6.5,-18.5,30.41,NW,320,3.5,3.6,55,0.00,CLR,,0.00,WeatherDisplay:10.37,2013-01-24 05:00:00,
2013-01-23 23:01:00,-6.5,-18.5,30.41,NNW,341,3.5,3.5,55,0.00,CLR,,0.00,WeatherDisplay:10.37,2013-01-24 05:01:00,
2013-01-23 23:06:00,-6.7,-18.7,30.41,NNW,338,4.6,4.6,55,0.00,CLR,,0.00,WeatherDisplay:10.37,2013-01-24 05:06:00,
2013-01-23 23:11:00,-6.7,-18.7,30.41,WNW,301,5.8,5.8,55,0.00,CLR,,0.00,WeatherDisplay:10.37,2013-01-24 05:11:00,
2013-01-23 23:17:00,-6.7,-18.7,30.41,North,0,5.8,5.8,55,0.00,CLR,,0.00,WeatherDisplay:10.37,2013-01-24 05:17:00,
2013-01-23 23:22:00,-6.9,-18.8,30.41,West,266,3.5,3.5,55,0.00,CLR,,0.00,WeatherDisplay:10.37,2013-01-24 05:22:00,
2013-01-23 23:27:00,-7.1,-19.0,30.41,NNW,337,2.3,0.0,55,0.00,CLR,,0.00,WeatherDisplay:10.37,2013-01-24 05:27:00,
2013-01-23 23:32:00,-7.2,-19.2,30.44,NW,321,2.3,2.3,55,0.00,CLR,,0.00,WeatherDisplay:10.37,2013-01-24 05:32:00,
2013-01-23 23:37:00,-7.2,-19.2,30.44,NW,320,3.5,3.5,55,0.00,CLR,,0.00,WeatherDisplay:10.37,2013-01-24 05:37:00,
2013-01-23 23:43:00,-7.4,-19.3,30.44,NNW,331,3.5,3.6,55,0.00,CLR,,0.00,WeatherDisplay:10.37,2013-01-24 05:43:00,
2013-01-23 23:48:00,-7.4,-19.3,30.44,NW,316,3.5,3.5,55,0.00,CLR,,0.00,WeatherDisplay:10.37,2013-01-24 05:48:00,
2013-01-23 23:53:00,-7.6,-19.5,30.44,NNW,338,3.5,3.5,55,0.00,CLR,,0.00,WeatherDisplay:10.37,2013-01-24 05:53:00,
2013-01-23 23:58:00,-7.6,-19.5,30.44,NNW,327,3.5,0.0,55,0.00,CLR,,0.00,WeatherDisplay:10.37,2013-01-24 05:58:00,